User: anonymous   Login
Location: Bangkok
(13.7500°N, 100.5170°E)
Time: 11:20:07
(UTC+07:00)
Language:

ERBS - Orbit

View from above orbital plane
View from above orbital plane
View from above satellite
View from above satellite

Ground track
Ground track

The orbit data is extracted from the following two-line orbital elements,

1 15354U 84108B   17119.94856038 +.00002996 +00000-0 +74830-4 0  9993
2 15354 057.0088 346.0347 0013597 037.4956 322.7044 15.43396477790483
Epoch (UTC): 29 April 2017 22:45:55
Eccentricity: 0.0013597
inclination: 57.0088°
perigee height: 427 km
apogee height: 445 km
right ascension of ascending node: 346.0347°
argument of perigee: 37.4956°
revolutions per day: 15.43396477
mean anomaly at epoch: 322.7044°
orbit number at epoch: 79048

The dashed part of the orbit path shows where the satellite is in the earth's shadow,  

DLR